#timestamp,LO_Frequency,Hit,StdDev 
1698775215.9,286047003.4,N
1698775235.7,286047003.8,N
1698775255.6,286047003.2,N
1698775275.4,286047001.8,N
1698775295.2,286047003.1,N
1698775315.1,286047003.0,N
1698775316.0,286047003.0,N
1698775335.8,286047003.2,N
1698775355.7,286047003.3,N
1698775375.5,286047003.4,N
1698775395.3,286047005.9,N
1698775415.2,286047003.1,N
1698775435.9,286047003.0,N
1698775455.7,286047003.0,N
1698775475.6,286047007.5,N
1698775495.4,286047005.7,N
1698775515.2,286047005.4,N
1698775535.1,286047005.1,N
1698775536.0,286047005.1,N
1698775555.8,286047004.9,Y
1698775575.7,286047002.2,P
1698775595.5,286047004.0,P
1698775615.3,286047004.3,P
1698775635.2,286047003.6,Y
1698775655.0,286047000.5,P
1698775655.9,286047000.5,N
1698775675.8,286046999.8,N
1698775695.6,286047000.3,N
1698775715.4,286047000.6,N
1698775735.3,286047000.2,N
1698775755.1,286047000.5,N
1698775775.8,286047000.5,N
1698775795.7,286047000.8,N
1698775815.5,286047000.8,N
1698775835.4,286047000.9,N
1698775855.2,286047000.4,N
1698775875.0,286047000.0,N
1698775875.9,286047000.0,N
1698775895.8,286046999.7,N
1698775915.6,286046999.8,N
1698775935.4,286046999.8,N
1698775955.3,286047002.7,Y
1698775975.1,286046999.8,P
1698775995.9,286047002.6,P
1698776015.7,286047002.7,N
1698776035.5,286047002.0,N
1698776055.4,286047001.5,N
1698776075.2,286047002.3,N
1698776095.0,286047001.3,N
1698776095.9,286047001.3,N
1698776115.8,286047001.4,N
1698776135.6,286047001.6,N
1698776155.5,286047001.6,N
1698776175.3,286047001.9,N
1698776195.1,286047004.3,Y
1698776215.9,286047001.9,P
1698776235.7,286047001.6,P
1698776255.5,286047002.0,P
1698776275.4,286047001.8,Y
1698776295.2,286047002.2,P
1698776315.1,286047002.7,P
1698776316.0,286047002.7,P
1698776335.8,286047002.0,Y
1698776355.6,286046998.5,P
1698776375.5,286046998.1,N
1698776395.3,286047001.1,N
1698776415.2,286047001.1,N
1698776435.9,286046998.1,N
1698776455.7,286046998.3,N
1698776475.6,286046999.4,N
1698776495.4,286046998.9,N
1698776515.2,286046998.5,N
1698776535.1,286047000.9,N
1698776536.0,286047000.9,N
1698776555.8,286047000.8,N
1698776575.7,286046998.3,N
1698776595.5,286046999.3,N
1698776615.3,286046999.4,N
1698776635.2,286046998.9,N
1698776655.0,286046998.4,N
1698776655.9,286046998.4,N
1698776675.7,286046998.3,N
1698776695.6,286046998.5,N
1698776715.4,286046998.2,N
1698776735.3,286047000.9,N
1698776755.1,286047000.8,N
1698776756.0,286047000.8,N
1698776775.8,286047000.8,N
1698776795.7,286046999.8,N
1698776815.5,286046999.9,N
1698776835.3,286047000.1,N
1698776855.2,286046999.9,N
1698776875.0,286047000.1,N
1698776875.9,286047000.1,N
1698776895.8,286047000.0,N
1698776915.6,286047002.3,N
1698776935.4,286047002.3,N
1698776955.3,286047002.2,N
1698776975.1,286047002.5,N
1698776995.8,286047002.5,N
1698777015.7,286047002.7,N
1698777035.5,286046999.7,N
1698777055.4,286047002.3,N
1698777075.2,286046999.8,N
1698777095.0,286047002.4,N
1698777095.9,286047002.4,N
1698777115.8,286047002.3,N
1698777135.6,286047001.8,N
1698777155.4,286047002.5,N
1698777175.3,286047001.4,N
1698777195.1,286047002.6,N
1698777215.9,286047002.6,N
1698777235.7,286047002.3,N
1698777255.5,286047001.4,N
1698777275.4,286047001.9,N
1698777295.2,286047001.7,N
1698777315.0,286047003.8,Y
1698777315.9,286047003.8,P
1698777335.8,286047002.4,N
1698777355.6,286047004.3,P
1698777375.5,286047003.9,Y
1698777395.3,286047000.5,P
1698777415.1,286047000.3,N
1698777435.9,286046998.2,N
1698777455.7,286047001.1,N
1698777505.6,286046998.3,E
1698777515.5,286046999.9,N
1698777535.3,286047002.2,P
1698777555.2,286047002.6,N
1698777575.9,286047002.3,N
1698777595.7,286046999.7,N
1698777615.6,286046999.8,N
1698777635.4,286047002.5,N
1698777655.3,286047002.5,N
1698777675.1,286047004.4,Y
1698777676.0,286047004.4,P
1698777695.8,286047000.1,N
1698777715.7,286046999.8,N
1698777735.5,286047002.2,N
1698777755.4,286047001.4,N
1698777775.2,286047004.1,N
1698777795.0,286047003.9,N
1698777795.9,286047003.9,N
1698777815.8,286047004.0,N
1698777835.6,286047004.4,N
1698777855.4,286047004.3,N
1698777875.3,286047004.3,N
1698777895.1,286047003.6,N
1698777915.9,286047003.9,N
1698777935.7,286047003.5,N
1698777955.5,286047003.8,N
1698777975.4,286047003.6,N
1698777995.2,286047006.0,Y
1698778015.0,286047002.8,P
1698778015.9,286047002.8,P
1698778035.8,286047002.3,P
1698778055.6,286047002.4,Y
1698778075.5,286047000.8,P
1698778095.3,286046998.3,N
1698778115.1,286047000.9,N
1698778135.9,286046998.2,N
1698778155.7,286046998.6,N
1698778175.5,286046998.6,N
1698778195.4,286047000.5,N
1698778215.2,286047001.2,N
1698778235.1,286046998.5,N
1698778236.0,286046998.5,N
1698778255.8,286046998.7,N
1698778275.6,286046998.2,N
1698778295.5,286046998.2,N
1698778315.3,286046998.1,N
1698778335.1,286046998.6,N
1698778355.9,286046999.4,N
1698778375.7,286046998.4,N
1698778395.6,286046998.1,N
1698778415.4,286047001.0,N
1698778435.2,286047001.0,N
1698778455.1,286047000.6,N
1698778456.0,286047000.6,N
1698778475.8,286046999.7,N
1698778495.6,286047000.0,N
1698778515.5,286047000.0,N
1698778535.3,286047000.2,N
1698778555.2,286047002.8,N
1698778575.9,286046999.7,N
1698778595.7,286047002.5,N
1698778615.6,286047002.7,N
1698778635.4,286047000.3,N
1698778655.2,286047002.4,N
1698778675.1,286047002.6,N
1698778676.0,286047002.6,N
1698778695.8,286046999.8,N
1698778715.7,286047002.7,N
1698778735.5,286047000.2,N
1698778755.3,286046999.8,N
1698778775.2,286047002.8,N
1698778795.0,286047002.8,N
1698778795.9,286047002.8,N
